Location: Adrasan
(36.3319°N, 30.4314°E)
Time: 08:27:24
(UTC+00:00)

Meteor 1-10 Rocket - Pass Details

Date: 09 December 2023
Orbit: 835 x 909 km, 81.2° (Epoch: 01 March)

Event Time Altitude Azimuth Distance (km) Brightness Sun altitude
Rises 16:21:12 0° 171° (S) 3,503 7.5 -19.2°
Reaches altitude 10° 16:23:43 10° 166° (SSE) 2,573 6.7 -19.7°
Maximum altitude 16:29:20 49° 93° (E) 1,159 4.5 -20.8°
Enters shadow 16:31:26 34° 43° (NE) 1,445 5.0 -21.2°
